Rome, GA

11:23 PM EST on November 19, 2019 (GMT -0500)
Russell

Weather History for KRMG - September, 2019

Change the Weather History Date:

Tuesday, September 3, 2019

  Actual Average Record
Temperature  
Mean Temperature 80 °F 76 °F  
Max Temperature 95 °F 87 °F 98 °F (2011)
Min Temperature 65 °F 64 °F 7 °F (1996)
Degree Days  
Heating Degree Days 0 0  
Month to date heating degree days 0 0  
Since 1 July heating degree days 0 0  
Cooling Degree Days 15 11  
Month to date cooling degree days 44 33  
Year to date cooling degree days 1803 1399  
Growing Degree Days 30 (Base 50)    
Moisture  
Dew Point 67 °F    
Average Humidity 66    
Maximum Humidity 93    
Minimum Humidity 31    
Precipitation  
Precipitation 0.00 in 0.08 in 0.59 in (2012)
Month to date precipitation 0.00 0.27  
Year to date precipitation 42.45 35.69  
Sea Level Pressure  
Sea Level Pressure 29.97 in    
Wind  
Wind Speed 2 mph ()    
Max Wind Speed 12 mph    
Max Gust Speed 15 mph    
Visibility 10.0 miles    
Events      
T = Trace of Precipitation, MM = Missing Value Source: Averaged Metar Reports

Daily Weather History Graph

Daily Weather History Graph

Search for Another Location

Airport or City:

Astronomy

Sep. 03, 2019 Rise Set
Actual Time 7:15 AM EDT 8:04 PM EDT
Civil Twilight 6:49 AM EDT 8:29 PM EDT
Nautical Twilight 6:19 AM EDT 8:59 PM EDT
Astronomical Twilight 5:48 AM EDT 9:30 PM EDT
Moon 11:55 AM EDT (9/3) 11:14 PM EDT (9/3)
Length of Visible Light 13h 40m
Length of Day
12h 49m
Waxing Crescent, 24% of the Moon is Illuminated
Sep 3
Waxing Crescent
Sep 5
First Quarter
Sep 14
Full
Sep 21
Last Quarter
Sep 28
New

Hourly Weather History & Observations

Time (EDT) Temp. Heat Index Dew Point Humidity Pressure Visibility Wind Dir Wind Speed Gust Speed Precip Events Conditions
12:53 AM 73.9 °F - 68.0 °F 82% 29.98 in 10.0 mi NE 3.5 mph - N/A   Clear
1:53 AM 73.0 °F - 68.0 °F 84% 29.97 in 10.0 mi Calm Calm - N/A   Clear
2:53 AM 70.0 °F - 66.9 °F 90% 29.96 in 10.0 mi Calm Calm - N/A   Clear
3:53 AM 71.1 °F - 66.0 °F 84% 29.95 in 10.0 mi North 5.8 mph - N/A   Clear
4:53 AM 69.1 °F - 66.0 °F 90% 29.96 in 10.0 mi Calm Calm - N/A   Clear
5:53 AM 69.1 °F - 64.9 °F 87% 29.96 in 10.0 mi NNE 3.5 mph - N/A   Clear
6:53 AM 66.9 °F - 64.0 °F 90% 29.99 in 9.0 mi Calm Calm - N/A   Clear
7:53 AM 69.1 °F - 64.9 °F 87% 30.01 in 10.0 mi Calm Calm - N/A   Clear
8:53 AM 73.0 °F - 66.9 °F 81% 30.01 in 10.0 mi Calm Calm - N/A   Clear
9:53 AM 79.0 °F - 69.1 °F 72% 30.02 in 10.0 mi NNE 3.5 mph - N/A   Clear
10:53 AM 84.0 °F 87.8 °F 69.1 °F 61% 30.02 in 10.0 mi Calm Calm - N/A   Clear
11:53 AM 87.1 °F 91.3 °F 69.1 °F 55% 30.01 in 10.0 mi Calm Calm - N/A   Clear
12:53 PM 90.0 °F 93.6 °F 68.0 °F 48% 30.00 in 10.0 mi Calm Calm - N/A   Clear
1:53 PM 91.9 °F 95.4 °F 66.9 °F 44% 29.98 in 10.0 mi Variable 3.5 mph - N/A   Clear
2:53 PM 93.9 °F 97.5 °F 66.9 °F 41% 29.96 in 10.0 mi North 8.1 mph - N/A   Clear
3:53 PM 93.9 °F 95.6 °F 64.0 °F 37% 29.94 in 10.0 mi WNW 6.9 mph - N/A   Clear
4:53 PM 95.0 °F 95.2 °F 61.0 °F 32% 29.92 in 10.0 mi NNW 5.8 mph - N/A   Clear
5:53 PM 93.9 °F 95.2 °F 63.0 °F 36% 29.91 in 10.0 mi North 5.8 mph - N/A   Clear
6:53 PM 93.0 °F 95.0 °F 64.9 °F 39% 29.92 in 10.0 mi NNW 6.9 mph - N/A   Clear
7:53 PM 88.0 °F 90.3 °F 66.0 °F 48% 29.93 in 10.0 mi NW 3.5 mph - N/A   Clear
8:53 PM 82.0 °F 84.9 °F 68.0 °F 62% 29.94 in 10.0 mi NNE 3.5 mph - N/A   Clear
9:53 PM 79.0 °F - 69.1 °F 72% 29.96 in 10.0 mi Calm Calm - N/A   Clear
10:53 PM 77.0 °F - 69.1 °F 76% 29.96 in 10.0 mi ENE 3.5 mph - N/A   Clear
11:53 PM 73.9 °F - 69.1 °F 85% 29.97 in 10.0 mi North 4.6 mph - N/A   Clear